owner,sensor,date,latitude,longitude,vertical_datum,wind_speed,wind_to_direction,wind_speed_of_gust,qcFlag 
DISL,ioos:station:DISL:PPTA:1,2014-04-01T00:00:00Z,30.2791,-87.5561,0.0,2.34,147.1,-9999.0,'1111122,1111122,1111122' 
DISL,ioos:station:DISL:PPTA:1,2014-04-01T00:30:00Z,30.2791,-87.5561,0.0,2.42,144.0,-9999.0,'1111122,1111122,1111122' 
DISL,ioos:station:DISL:PPTA:1,2014-04-01T01:00:00Z,30.2791,-87.5561,0.0,2.4,140.2,-9999.0,'1111122,1111122,1111122' 
DISL,ioos:station:DISL:PPTA:1,2014-04-01T01:30:00Z,30.2791,-87.5561,0.0,1.83,143.8,-9999.0,'1111122,1111122,1111122' 
DISL,ioos:station:DISL:PPTA:1,2014-04-01T02:00:00Z,30.2791,-87.5561,0.0,2.15,142.2,-9999.0,'1111122,1111122,1111122' 
DISL,ioos:station:DISL:PPTA:1,2014-04-01T02:30:00Z,30.2791,-87.5561,0.0,2.6,141.8,-9999.0,'1111122,1111122,1111122' 
DISL,ioos:station:DISL:PPTA:1,2014-04-01T03:00:00Z,30.2791,-87.5561,0.0,1.68,173.8,-9999.0,'1111122,1111122,1111122' 
DISL,ioos:station:DISL:PPTA:1,2014-04-01T03:30:00Z,30.2791,-87.5561,0.0,2.17,174.4,-9999.0,'1111122,1111122,1111122' 
DISL,ioos:station:DISL:PPTA:1,2014-04-01T04:00:00Z,30.2791,-87.5561,0.0,2.9,165.0,-9999.0,'1111122,1111122,1111122' 
DISL,ioos:station:DISL:PPTA:1,2014-04-01T04:30:00Z,30.2791,-87.5561,0.0,2.47,169.1,-9999.0,'1111122,1111122,1111122' 
DISL,ioos:station:DISL:PPTA:1,2014-04-01T05:00:00Z,30.2791,-87.5561,0.0,2.33,179.2,-9999.0,'1111122,1111122,1111122' 
DISL,ioos:station:DISL:PPTA:1,2014-04-01T05:30:00Z,30.2791,-87.5561,0.0,1.13,183.2,-9999.0,'1111122,1111122,1111122' 
DISL,ioos:station:DISL:PPTA:1,2014-04-01T06:00:00Z,30.2791,-87.5561,0.0,0.69,255.5,-9999.0,'1111122,1111122,1111122' 
DISL,ioos:station:DISL:PPTA:1,2014-04-01T06:30:00Z,30.2791,-87.5561,0.0,0.89,273.3,-9999.0,'1111122,1111122,1111122' 
DISL,ioos:station:DISL:PPTA:1,2014-04-01T07:00:00Z,30.2791,-87.5561,0.0,0.14,331.5,-9999.0,'1111122,1111122,1111122' 
DISL,ioos:station:DISL:PPTA:1,2014-04-01T07:30:00Z,30.2791,-87.5561,0.0,0.47,34.13,-9999.0,'1111122,1111122,1111122' 
DISL,ioos:station:DISL:PPTA:1,2014-04-01T08:00:00Z,30.2791,-87.5561,0.0,0.06,17.42,-9999.0,'1111122,1111122,1111122' 
DISL,ioos:station:DISL:PPTA:1,2014-04-01T08:30:00Z,30.2791,-87.5561,0.0,0.57,8.16,-9999.0,'1111122,1111122,1111122' 
DISL,ioos:station:DISL:PPTA:1,2014-04-01T09:00:00Z,30.2791,-87.5561,0.0,0.53,314.5,-9999.0,'1111122,1111122,1111122' 
DISL,ioos:station:DISL:PPTA:1,2014-04-01T09:30:00Z,30.2791,-87.5561,0.0,0.62,322.0,-9999.0,'1111122,1111122,1111122' 
DISL,ioos:station:DISL:PPTA:1,2014-04-01T10:00:00Z,30.2791,-87.5561,0.0,0.86,52.18,-9999.0,'1111122,1111122,1111122' 
DISL,ioos:station:DISL:PPTA:1,2014-04-01T10:30:00Z,30.2791,-87.5561,0.0,1.3,44.28,-9999.0,'1111122,1111122,1111122' 
DISL,ioos:station:DISL:PPTA:1,2014-04-01T11:00:00Z,30.2791,-87.5561,0.0,1.1,59.9,-9999.0,'1111122,1111122,1111122' 
DISL,ioos:station:DISL:PPTA:1,2014-04-01T11:30:00Z,30.2791,-87.5561,0.0,1.26,61.59,-9999.0,'1111122,1111122,1111122' 
DISL,ioos:station:DISL:PPTA:1,2014-04-01T12:00:00Z,30.2791,-87.5561,0.0,1.64,82.3,-9999.0,'1111122,1111122,1111122' 
DISL,ioos:station:DISL:PPTA:1,2014-04-01T12:30:00Z,30.2791,-87.5561,0.0,2.32,68.55,-9999.0,'1111122,1111122,1111122' 
DISL,ioos:station:DISL:PPTA:1,2014-04-01T13:00:00Z,30.2791,-87.5561,0.0,2.89,79.08,-9999.0,'1111122,1111122,1111122' 
DISL,ioos:station:DISL:PPTA:1,2014-04-01T13:30:00Z,30.2791,-87.5561,0.0,2.59,110.0,-9999.0,'1111122,1111122,1111122' 
DISL,ioos:station:DISL:PPTA:1,2014-04-01T14:00:00Z,30.2791,-87.5561,0.0,2.44,112.5,-9999.0,'1111122,1111122,1111122' 
DISL,ioos:station:DISL:PPTA:1,2014-04-01T14:30:00Z,30.2791,-87.5561,0.0,2.7,113.1,-9999.0,'1111122,1111122,1111122' 
DISL,ioos:station:DISL:PPTA:1,2014-04-01T15:00:00Z,30.2791,-87.5561,0.0,3.93,111.6,-9999.0,'1111122,1111122,1111122' 
DISL,ioos:station:DISL:PPTA:1,2014-04-01T15:30:00Z,30.2791,-87.5561,0.0,2.78,113.3,-9999.0,'1111122,1111122,1111122' 
DISL,ioos:station:DISL:PPTA:1,2014-04-01T16:00:00Z,30.2791,-87.5561,0.0,3.43,118.1,-9999.0,'1111122,1111122,1111122' 
DISL,ioos:station:DISL:PPTA:1,2014-04-01T16:30:00Z,30.2791,-87.5561,0.0,3.46,124.3,-9999.0,'1111122,1111122,1111122' 
DISL,ioos:station:DISL:PPTA:1,2014-04-01T17:00:00Z,30.2791,-87.5561,0.0,4.49,128.5,-9999.0,'1111122,1111122,1111122' 
DISL,ioos:station:DISL:PPTA:1,2014-04-01T17:30:00Z,30.2791,-87.5561,0.0,3.62,130.8,-9999.0,'1111122,1111122,1111122' 
DISL,ioos:station:DISL:PPTA:1,2014-04-01T18:00:00Z,30.2791,-87.5561,0.0,2.12,138.7,-9999.0,'1111122,1111122,1111122' 
DISL,ioos:station:DISL:PPTA:1,2014-04-01T18:30:00Z,30.2791,-87.5561,0.0,2.95,139.3,-9999.0,'1111122,1111122,1111122' 
DISL,ioos:station:DISL:PPTA:1,2014-04-01T19:00:00Z,30.2791,-87.5561,0.0,3.19,138.1,-9999.0,'1111122,1111122,1111122' 
DISL,ioos:station:DISL:PPTA:1,2014-04-01T19:30:00Z,30.2791,-87.5561,0.0,3.73,148.1,-9999.0,'1111122,1111122,1111122' 
DISL,ioos:station:DISL:PPTA:1,2014-04-01T20:00:00Z,30.2791,-87.5561,0.0,4.43,150.4,-9999.0,'1111122,1111122,1111122' 
DISL,ioos:station:DISL:PPTA:1,2014-04-01T20:30:00Z,30.2791,-87.5561,0.0,4.46,152.0,-9999.0,'1111122,1111122,1111122' 
DISL,ioos:station:DISL:PPTA:1,2014-04-01T21:00:00Z,30.2791,-87.5561,0.0,3.87,139.3,-9999.0,'1111122,1111122,1111122' 
DISL,ioos:station:DISL:PPTA:1,2014-04-01T21:30:00Z,30.2791,-87.5561,0.0,3.49,134.4,-9999.0,'1111122,1111122,1111122' 
DISL,ioos:station:DISL:PPTA:1,2014-04-01T22:00:00Z,30.2791,-87.5561,0.0,3.33,133.8,-9999.0,'1111122,1111122,1111122' 
DISL,ioos:station:DISL:PPTA:1,2014-04-01T22:30:00Z,30.2791,-87.5561,0.0,2.62,135.1,-9999.0,'1111122,1111122,1111122' 
DISL,ioos:station:DISL:PPTA:1,2014-04-01T23:00:00Z,30.2791,-87.5561,0.0,2.53,138.6,-9999.0,'1111122,1111122,1111122' 
DISL,ioos:station:DISL:PPTA:1,2014-04-01T23:30:00Z,30.2791,-87.5561,0.0,3.16,135.3,-9999.0,'1111122,1111122,1111122' 
DISL,ioos:station:DISL:PPTA:1,2014-04-02T00:00:00Z,30.2791,-87.5561,0.0,2.67,145.2,-9999.0,'1111122,1111122,1111122' 
DISL,ioos:station:DISL:PPTA:1,2014-04-02T00:30:00Z,30.2791,-87.5561,0.0,2.1,141.3,-9999.0,'1111122,1111122,1111122' 
DISL,ioos:station:DISL:PPTA:1,2014-04-02T01:00:00Z,30.2791,-87.5561,0.0,2.4,132.3,-9999.0,'1111122,1111122,1111122' 
DISL,ioos:station:DISL:PPTA:1,2014-04-02T01:30:00Z,30.2791,-87.5561,0.0,1.65,125.9,-9999.0,'1111122,1111122,1111122' 
DISL,ioos:station:DISL:PPTA:1,2014-04-02T02:00:00Z,30.2791,-87.5561,0.0,1.48,120.9,-9999.0,'1111122,1111122,1111122' 
DISL,ioos:station:DISL:PPTA:1,2014-04-02T02:30:00Z,30.2791,-87.5561,0.0,2.03,118.3,-9999.0,'1111122,1111122,1111122' 
DISL,ioos:station:DISL:PPTA:1,2014-04-02T03:00:00Z,30.2791,-87.5561,0.0,1.65,125.2,-9999.0,'1111122,1111122,1111122' 
DISL,ioos:station:DISL:PPTA:1,2014-04-02T03:30:00Z,30.2791,-87.5561,0.0,1.71,123.7,-9999.0,'1111122,1111122,1111122' 
DISL,ioos:station:DISL:PPTA:1,2014-04-02T04:00:00Z,30.2791,-87.5561,0.0,1.72,127.1,-9999.0,'1111122,1111122,1111122' 
DISL,ioos:station:DISL:PPTA:1,2014-04-02T04:30:00Z,30.2791,-87.5561,0.0,1.45,120.0,-9999.0,'1111122,1111122,1111122' 
DISL,ioos:station:DISL:PPTA:1,2014-04-02T05:00:00Z,30.2791,-87.5561,0.0,1.54,119.9,-9999.0,'1111122,1111122,1111122' 
DISL,ioos:station:DISL:PPTA:1,2014-04-02T05:30:00Z,30.2791,-87.5561,0.0,1.59,121.4,-9999.0,'1111122,1111122,1111122' 
DISL,ioos:station:DISL:PPTA:1,2014-04-02T06:00:00Z,30.2791,-87.5561,0.0,2.07,128.1,-9999.0,'1111122,1111122,1111122' 
DISL,ioos:station:DISL:PPTA:1,2014-04-02T06:30:00Z,30.2791,-87.5561,0.0,2.61,130.5,-9999.0,'1111122,1111122,1111122' 
DISL,ioos:station:DISL:PPTA:1,2014-04-02T07:00:00Z,30.2791,-87.5561,0.0,2.3,129.7,-9999.0,'1111122,1111122,1111122' 
DISL,ioos:station:DISL:PPTA:1,2014-04-02T07:30:00Z,30.2791,-87.5561,0.0,2.72,139.4,-9999.0,'1111122,1111122,1111122' 
DISL,ioos:station:DISL:PPTA:1,2014-04-02T08:00:00Z,30.2791,-87.5561,0.0,2.51,144.8,-9999.0,'1111122,1111122,1111122' 
DISL,ioos:station:DISL:PPTA:1,2014-04-02T08:30:00Z,30.2791,-87.5561,0.0,2.86,148.7,-9999.0,'1111122,1111122,1111122' 
DISL,ioos:station:DISL:PPTA:1,2014-04-02T09:00:00Z,30.2791,-87.5561,0.0,3.44,148.9,-9999.0,'1111122,1111122,1111122' 
DISL,ioos:station:DISL:PPTA:1,2014-04-02T09:30:00Z,30.2791,-87.5561,0.0,3.12,145.4,-9999.0,'1111122,1111122,1111122' 
DISL,ioos:station:DISL:PPTA:1,2014-04-02T10:00:00Z,30.2791,-87.5561,0.0,3.25,144.9,-9999.0,'1111122,1111122,1111122' 
DISL,ioos:station:DISL:PPTA:1,2014-04-02T10:30:00Z,30.2791,-87.5561,0.0,3.65,134.9,-9999.0,'1111122,1111122,1111122' 
DISL,ioos:station:DISL:PPTA:1,2014-04-02T11:00:00Z,30.2791,-87.5561,0.0,3.43,132.1,-9999.0,'1111122,1111122,1111122' 
DISL,ioos:station:DISL:PPTA:1,2014-04-02T11:30:00Z,30.2791,-87.5561,0.0,2.9,129.0,-9999.0,'1111122,1111122,1111122' 
DISL,ioos:station:DISL:PPTA:1,2014-04-02T12:00:00Z,30.2791,-87.5561,0.0,3.02,125.8,-9999.0,'1111122,1111122,1111122' 
DISL,ioos:station:DISL:PPTA:1,2014-04-02T12:30:00Z,30.2791,-87.5561,0.0,3.06,124.9,-9999.0,'1111122,1111122,1111122' 
DISL,ioos:station:DISL:PPTA:1,2014-04-02T13:00:00Z,30.2791,-87.5561,0.0,2.91,128.2,-9999.0,'1111122,1111122,1111122' 
DISL,ioos:station:DISL:PPTA:1,2014-04-02T13:30:00Z,30.2791,-87.5561,0.0,3.17,133.9,-9999.0,'1111122,1111122,1111122' 
DISL,ioos:station:DISL:PPTA:1,2014-04-02T14:00:00Z,30.2791,-87.5561,0.0,3.27,132.7,-9999.0,'1111122,1111122,1111122' 
DISL,ioos:station:DISL:PPTA:1,2014-04-02T14:30:00Z,30.2791,-87.5561,0.0,3.49,136.0,-9999.0,'1111122,1111122,1111122' 
DISL,ioos:station:DISL:PPTA:1,2014-04-02T15:00:00Z,30.2791,-87.5561,0.0,3.74,133.2,-9999.0,'1111122,1111122,1111122' 
DISL,ioos:station:DISL:PPTA:1,2014-04-02T15:30:00Z,30.2791,-87.5561,0.0,4.15,138.8,-9999.0,'1111122,1111122,1111122' 
DISL,ioos:station:DISL:PPTA:1,2014-04-02T16:00:00Z,30.2791,-87.5561,0.0,4.3,136.8,-9999.0,'1111122,1111122,1111122' 
DISL,ioos:station:DISL:PPTA:1,2014-04-02T16:30:00Z,30.2791,-87.5561,0.0,4.77,138.0,-9999.0,'1111122,1111122,1111122' 
DISL,ioos:station:DISL:PPTA:1,2014-04-02T17:00:00Z,30.2791,-87.5561,0.0,4.4,133.8,-9999.0,'1111122,1111122,1111122' 
DISL,ioos:station:DISL:PPTA:1,2014-04-02T17:30:00Z,30.2791,-87.5561,0.0,4.46,134.5,-9999.0,'1111122,1111122,1111122' 
DISL,ioos:station:DISL:PPTA:1,2014-04-02T18:00:00Z,30.2791,-87.5561,0.0,4.69,133.6,-9999.0,'1111122,1111122,1111122' 
DISL,ioos:station:DISL:PPTA:1,2014-04-02T18:30:00Z,30.2791,-87.5561,0.0,3.95,127.2,-9999.0,'1111122,1111122,1111122' 
DISL,ioos:station:DISL:PPTA:1,2014-04-02T19:00:00Z,30.2791,-87.5561,0.0,3.93,126.1,-9999.0,'1111122,1111122,1111122' 
DISL,ioos:station:DISL:PPTA:1,2014-04-02T19:30:00Z,30.2791,-87.5561,0.0,4.13,122.8,-9999.0,'1111122,1111122,1111122' 
DISL,ioos:station:DISL:PPTA:1,2014-04-02T20:00:00Z,30.2791,-87.5561,0.0,4.32,127.0,-9999.0,'1111122,1111122,1111122' 
DISL,ioos:station:DISL:PPTA:1,2014-04-02T20:30:00Z,30.2791,-87.5561,0.0,3.64,126.5,-9999.0,'1111122,1111122,1111122' 
DISL,ioos:station:DISL:PPTA:1,2014-04-02T21:00:00Z,30.2791,-87.5561,0.0,3.67,124.4,-9999.0,'1111122,1111122,1111122' 
DISL,ioos:station:DISL:PPTA:1,2014-04-02T21:30:00Z,30.2791,-87.5561,0.0,3.67,122.7,-9999.0,'1111122,1111122,1111122' 
DISL,ioos:station:DISL:PPTA:1,2014-04-02T22:00:00Z,30.2791,-87.5561,0.0,4.01,121.1,-9999.0,'1111122,1111122,1111122' 
DISL,ioos:station:DISL:PPTA:1,2014-04-02T22:30:00Z,30.2791,-87.5561,0.0,3.75,119.5,-9999.0,'1111122,1111122,1111122' 
DISL,ioos:station:DISL:PPTA:1,2014-04-02T23:00:00Z,30.2791,-87.5561,0.0,2.98,111.6,-9999.0,'1111122,1111122,1111122' 
DISL,ioos:station:DISL:PPTA:1,2014-04-02T23:30:00Z,30.2791,-87.5561,0.0,2.54,102.3,-9999.0,'1111122,1111122,1111122' 
DISL,ioos:station:DISL:PPTA:1,2014-04-03T00:00:00Z,30.2791,-87.5561,0.0,3.36,98.3,-9999.0,'1111122,1111122,1111122' 
DISL,ioos:station:DISL:PPTA:1,2014-04-03T00:30:00Z,30.2791,-87.5561,0.0,3.3,113.6,-9999.0,'1111122,1111122,1111122' 
DISL,ioos:station:DISL:PPTA:1,2014-04-03T01:00:00Z,30.2791,-87.5561,0.0,3.39,113.4,-9999.0,'1111122,1111122,1111122' 
DISL,ioos:station:DISL:PPTA:1,2014-04-03T01:30:00Z,30.2791,-87.5561,0.0,3.28,113.5,-9999.0,'1111122,1111122,1111122' 
DISL,ioos:station:DISL:PPTA:1,2014-04-03T02:00:00Z,30.2791,-87.5561,0.0,2.32,108.7,-9999.0,'1111122,1111122,1111122' 
DISL,ioos:station:DISL:PPTA:1,2014-04-03T02:30:00Z,30.2791,-87.5561,0.0,3.31,117.9,-9999.0,'1111122,1111122,1111122' 
DISL,ioos:station:DISL:PPTA:1,2014-04-03T03:00:00Z,30.2791,-87.5561,0.0,3.02,115.8,-9999.0,'1111122,1111122,1111122' 
DISL,ioos:station:DISL:PPTA:1,2014-04-03T03:30:00Z,30.2791,-87.5561,0.0,2.2,102.2,-9999.0,'1111122,1111122,1111122' 
DISL,ioos:station:DISL:PPTA:1,2014-04-03T04:00:00Z,30.2791,-87.5561,0.0,3.4,128.2,-9999.0,'1111122,1111122,1111122' 
DISL,ioos:station:DISL:PPTA:1,2014-04-03T04:30:00Z,30.2791,-87.5561,0.0,4.47,140.7,-9999.0,'1111122,1111122,1111122' 
DISL,ioos:station:DISL:PPTA:1,2014-04-03T05:00:00Z,30.2791,-87.5561,0.0,4.54,146.7,-9999.0,'1111122,1111122,1111122' 
DISL,ioos:station:DISL:PPTA:1,2014-04-03T05:30:00Z,30.2791,-87.5561,0.0,4.58,149.6,-9999.0,'1111122,1111122,1111122' 
DISL,ioos:station:DISL:PPTA:1,2014-04-03T06:00:00Z,30.2791,-87.5561,0.0,4.73,145.6,-9999.0,'1111122,1111122,1111122' 
DISL,ioos:station:DISL:PPTA:1,2014-04-03T06:30:00Z,30.2791,-87.5561,0.0,4.87,146.8,-9999.0,'1111122,1111122,1111122' 
DISL,ioos:station:DISL:PPTA:1,2014-04-03T07:00:00Z,30.2791,-87.5561,0.0,4.79,150.5,-9999.0,'1111122,1111122,1111122' 
DISL,ioos:station:DISL:PPTA:1,2014-04-03T07:30:00Z,30.2791,-87.5561,0.0,3.95,152.1,-9999.0,'1111122,1111122,1111122' 
DISL,ioos:station:DISL:PPTA:1,2014-04-03T08:00:00Z,30.2791,-87.5561,0.0,3.74,154.9,-9999.0,'1111122,1111122,1111122' 
DISL,ioos:station:DISL:PPTA:1,2014-04-03T08:30:00Z,30.2791,-87.5561,0.0,4.09,155.0,-9999.0,'1111122,1111122,1111122' 
DISL,ioos:station:DISL:PPTA:1,2014-04-03T09:00:00Z,30.2791,-87.5561,0.0,4.1,154.0,-9999.0,'1111122,1111122,1111122' 
DISL,ioos:station:DISL:PPTA:1,2014-04-03T09:30:00Z,30.2791,-87.5561,0.0,4.85,153.9,-9999.0,'1111122,1111122,1111122' 
DISL,ioos:station:DISL:PPTA:1,2014-04-03T10:00:00Z,30.2791,-87.5561,0.0,5.16,155.9,-9999.0,'1111122,1111122,1111122' 
DISL,ioos:station:DISL:PPTA:1,2014-04-03T10:30:00Z,30.2791,-87.5561,0.0,4.74,153.7,-9999.0,'1111122,1111122,1111122' 
DISL,ioos:station:DISL:PPTA:1,2014-04-03T11:00:00Z,30.2791,-87.5561,0.0,4.29,154.7,-9999.0,'1111122,1111122,1111122' 
DISL,ioos:station:DISL:PPTA:1,2014-04-03T11:30:00Z,30.2791,-87.5561,0.0,5.07,156.5,-9999.0,'1111122,1111122,1111122' 
DISL,ioos:station:DISL:PPTA:1,2014-04-03T12:00:00Z,30.2791,-87.5561,0.0,4.87,159.2,-9999.0,'1111122,1111122,1111122' 
DISL,ioos:station:DISL:PPTA:1,2014-04-03T12:30:00Z,30.2791,-87.5561,0.0,4.59,155.1,-9999.0,'1111122,1111122,1111122' 
DISL,ioos:station:DISL:PPTA:1,2014-04-03T13:00:00Z,30.2791,-87.5561,0.0,4.04,156.0,-9999.0,'1111122,1111122,1111122' 
DISL,ioos:station:DISL:PPTA:1,2014-04-03T13:30:00Z,30.2791,-87.5561,0.0,3.92,164.0,-9999.0,'1111122,1111122,1111122' 
DISL,ioos:station:DISL:PPTA:1,2014-04-03T14:00:00Z,30.2791,-87.5561,0.0,4.36,161.1,-9999.0,'1111122,1111122,1111122' 
DISL,ioos:station:DISL:PPTA:1,2014-04-03T14:30:00Z,30.2791,-87.5561,0.0,4.29,157.4,-9999.0,'1111122,1111122,1111122' 
DISL,ioos:station:DISL:PPTA:1,2014-04-03T15:00:00Z,30.2791,-87.5561,0.0,3.68,159.3,-9999.0,'1111122,1111122,1111122' 
DISL,ioos:station:DISL:PPTA:1,2014-04-03T15:30:00Z,30.2791,-87.5561,0.0,4.3,154.9,-9999.0,'1111122,1111122,1111122' 
DISL,ioos:station:DISL:PPTA:1,2014-04-03T16:00:00Z,30.2791,-87.5561,0.0,4.1,150.1,-9999.0,'1111122,1111122,1111122' 
DISL,ioos:station:DISL:PPTA:1,2014-04-03T16:30:00Z,30.2791,-87.5561,0.0,4.38,144.2,-9999.0,'1111122,1111122,1111122' 
DISL,ioos:station:DISL:PPTA:1,2014-04-03T17:00:00Z,30.2791,-87.5561,0.0,4.05,136.7,-9999.0,'1111122,1111122,1111122' 
DISL,ioos:station:DISL:PPTA:1,2014-04-03T17:30:00Z,30.2791,-87.5561,0.0,3.5,123.8,-9999.0,'1111122,1111122,1111122' 
DISL,ioos:station:DISL:PPTA:1,2014-04-03T18:00:00Z,30.2791,-87.5561,0.0,3.99,121.7,-9999.0,'1111122,1111122,1111122' 
DISL,ioos:station:DISL:PPTA:1,2014-04-03T18:30:00Z,30.2791,-87.5561,0.0,3.66,123.3,-9999.0,'1111122,1111122,1111122' 
DISL,ioos:station:DISL:PPTA:1,2014-04-03T19:00:00Z,30.2791,-87.5561,0.0,4.34,120.9,-9999.0,'1111122,1111122,1111122' 
DISL,ioos:station:DISL:PPTA:1,2014-04-03T19:30:00Z,30.2791,-87.5561,0.0,4.57,130.9,-9999.0,'1111122,1111122,1111122' 
DISL,ioos:station:DISL:PPTA:1,2014-04-03T20:00:00Z,30.2791,-87.5561,0.0,3.71,125.1,-9999.0,'1111122,1111122,1111122' 
DISL,ioos:station:DISL:PPTA:1,2014-04-03T20:30:00Z,30.2791,-87.5561,0.0,3.51,122.4,-9999.0,'1111122,1111122,1111122' 
DISL,ioos:station:DISL:PPTA:1,2014-04-03T21:00:00Z,30.2791,-87.5561,0.0,3.76,117.7,-9999.0,'1111122,1111122,1111122' 
DISL,ioos:station:DISL:PPTA:1,2014-04-03T21:30:00Z,30.2791,-87.5561,0.0,3.08,108.2,-9999.0,'1111122,1111122,1111122' 
DISL,ioos:station:DISL:PPTA:1,2014-04-03T22:00:00Z,30.2791,-87.5561,0.0,4.43,99.1,-9999.0,'1111122,1111122,1111122' 
DISL,ioos:station:DISL:PPTA:1,2014-04-03T22:30:00Z,30.2791,-87.5561,0.0,4.72,97.9,-9999.0,'1111122,1111122,1111122' 
DISL,ioos:station:DISL:PPTA:1,2014-04-03T23:00:00Z,30.2791,-87.5561,0.0,4.06,99.0,-9999.0,'1111122,1111122,1111122' 
DISL,ioos:station:DISL:PPTA:1,2014-04-03T23:30:00Z,30.2791,-87.5561,0.0,3.33,106.6,-9999.0,'1111122,1111122,1111122' 
DISL,ioos:station:DISL:PPTA:1,2014-04-04T00:00:00Z,30.2791,-87.5561,0.0,2.73,106.4,-9999.0,'1111122,1111122,1111122' 
DISL,ioos:station:DISL:PPTA:1,2014-04-04T00:30:00Z,30.2791,-87.5561,0.0,3.53,99.0,-9999.0,'1111122,1111122,1111122' 
DISL,ioos:station:DISL:PPTA:1,2014-04-04T01:00:00Z,30.2791,-87.5561,0.0,2.86,106.0,-9999.0,'1111122,1111122,1111122' 
DISL,ioos:station:DISL:PPTA:1,2014-04-04T01:30:00Z,30.2791,-87.5561,0.0,2.89,97.7,-9999.0,'1111122,1111122,1111122' 
DISL,ioos:station:DISL:PPTA:1,2014-04-04T02:00:00Z,30.2791,-87.5561,0.0,2.29,107.0,-9999.0,'1111122,1111122,1111122' 
DISL,ioos:station:DISL:PPTA:1,2014-04-04T02:30:00Z,30.2791,-87.5561,0.0,4.0,116.0,-9999.0,'1111122,1111122,1111122' 
DISL,ioos:station:DISL:PPTA:1,2014-04-04T03:00:00Z,30.2791,-87.5561,0.0,4.29,127.7,-9999.0,'1111122,1111122,1111122' 
DISL,ioos:station:DISL:PPTA:1,2014-04-04T03:30:00Z,30.2791,-87.5561,0.0,5.66,132.1,-9999.0,'1111122,1111122,1111122' 
DISL,ioos:station:DISL:PPTA:1,2014-04-04T04:00:00Z,30.2791,-87.5561,0.0,5.91,133.0,-9999.0,'1111122,1111122,1111122' 
DISL,ioos:station:DISL:PPTA:1,2014-04-04T04:30:00Z,30.2791,-87.5561,0.0,5.33,136.8,-9999.0,'1111122,1111122,1111122' 
DISL,ioos:station:DISL:PPTA:1,2014-04-04T05:00:00Z,30.2791,-87.5561,0.0,5.37,137.6,-9999.0,'1111122,1111122,1111122' 
DISL,ioos:station:DISL:PPTA:1,2014-04-04T05:30:00Z,30.2791,-87.5561,0.0,5.34,140.8,-9999.0,'1111122,1111122,1111122' 
DISL,ioos:station:DISL:PPTA:1,2014-04-04T06:00:00Z,30.2791,-87.5561,0.0,5.5,139.5,-9999.0,'1111122,1111122,1111122' 
DISL,ioos:station:DISL:PPTA:1,2014-04-04T06:30:00Z,30.2791,-87.5561,0.0,5.74,140.0,-9999.0,'1111122,1111122,1111122' 
DISL,ioos:station:DISL:PPTA:1,2014-04-04T07:00:00Z,30.2791,-87.5561,0.0,5.59,141.7,-9999.0,'1111122,1111122,1111122' 
DISL,ioos:station:DISL:PPTA:1,2014-04-04T07:30:00Z,30.2791,-87.5561,0.0,5.87,141.0,-9999.0,'1111122,1111122,1111122' 
DISL,ioos:station:DISL:PPTA:1,2014-04-04T08:00:00Z,30.2791,-87.5561,0.0,5.35,142.1,-9999.0,'1111122,1111122,1111122' 
DISL,ioos:station:DISL:PPTA:1,2014-04-04T08:30:00Z,30.2791,-87.5561,0.0,5.19,140.8,-9999.0,'1111122,1111122,1111122' 
DISL,ioos:station:DISL:PPTA:1,2014-04-04T09:00:00Z,30.2791,-87.5561,0.0,5.08,142.8,-9999.0,'1111122,1111122,1111122' 
DISL,ioos:station:DISL:PPTA:1,2014-04-04T09:30:00Z,30.2791,-87.5561,0.0,4.95,147.7,-9999.0,'1111122,1111122,1111122' 
DISL,ioos:station:DISL:PPTA:1,2014-04-04T10:00:00Z,30.2791,-87.5561,0.0,5.03,155.3,-9999.0,'1111122,1111122,1111122' 
DISL,ioos:station:DISL:PPTA:1,2014-04-04T10:30:00Z,30.2791,-87.5561,0.0,4.21,165.2,-9999.0,'1111122,1111122,1111122' 
DISL,ioos:station:DISL:PPTA:1,2014-04-04T11:00:00Z,30.2791,-87.5561,0.0,3.55,158.9,-9999.0,'1111122,1111122,1111122' 
DISL,ioos:station:DISL:PPTA:1,2014-04-04T11:30:00Z,30.2791,-87.5561,0.0,4.89,151.3,-9999.0,'1111122,1111122,1111122' 
DISL,ioos:station:DISL:PPTA:1,2014-04-04T12:00:00Z,30.2791,-87.5561,0.0,5.14,149.6,-9999.0,'1111122,1111122,1111122' 
DISL,ioos:station:DISL:PPTA:1,2014-04-04T12:30:00Z,30.2791,-87.5561,0.0,3.66,145.5,-9999.0,'1111122,1111122,1111122' 
DISL,ioos:station:DISL:PPTA:1,2014-04-04T13:00:00Z,30.2791,-87.5561,0.0,2.15,148.9,-9999.0,'1111122,1111122,1111122' 
DISL,ioos:station:DISL:PPTA:1,2014-04-04T13:30:00Z,30.2791,-87.5561,0.0,0.8,155.9,-9999.0,'1111122,1111122,1111122' 
DISL,ioos:station:DISL:PPTA:1,2014-04-04T14:00:00Z,30.2791,-87.5561,0.0,1.11,132.4,-9999.0,'1111122,1111122,1111122' 
DISL,ioos:station:DISL:PPTA:1,2014-04-04T14:30:00Z,30.2791,-87.5561,0.0,2.59,132.9,-9999.0,'1111122,1111122,1111122' 
DISL,ioos:station:DISL:PPTA:1,2014-04-04T15:00:00Z,30.2791,-87.5561,0.0,3.37,128.3,-9999.0,'1111122,1111122,1111122' 
DISL,ioos:station:DISL:PPTA:1,2014-04-04T15:30:00Z,30.2791,-87.5561,0.0,3.72,136.3,-9999.0,'1111122,1111122,1111122' 
DISL,ioos:station:DISL:PPTA:1,2014-04-04T16:00:00Z,30.2791,-87.5561,0.0,3.25,135.5,-9999.0,'1111122,1111122,1111122' 
DISL,ioos:station:DISL:PPTA:1,2014-04-04T16:30:00Z,30.2791,-87.5561,0.0,2.42,133.3,-9999.0,'1111122,1111122,1111122' 
DISL,ioos:station:DISL:PPTA:1,2014-04-04T17:00:00Z,30.2791,-87.5561,0.0,2.79,122.2,-9999.0,'1111122,1111122,1111122' 
DISL,ioos:station:DISL:PPTA:1,2014-04-04T17:30:00Z,30.2791,-87.5561,0.0,2.93,128.4,-9999.0,'1111122,1111122,1111122' 
DISL,ioos:station:DISL:PPTA:1,2014-04-04T18:00:00Z,30.2791,-87.5561,0.0,3.07,129.9,-9999.0,'1111122,1111122,1111122' 
DISL,ioos:station:DISL:PPTA:1,2014-04-04T18:30:00Z,30.2791,-87.5561,0.0,3.69,130.6,-9999.0,'1111122,1111122,1111122' 
DISL,ioos:station:DISL:PPTA:1,2014-04-04T19:00:00Z,30.2791,-87.5561,0.0,3.13,133.4,-9999.0,'1111122,1111122,1111122' 
DISL,ioos:station:DISL:PPTA:1,2014-04-04T19:30:00Z,30.2791,-87.5561,0.0,1.59,122.0,-9999.0,'1111122,1111122,1111122' 
DISL,ioos:station:DISL:PPTA:1,2014-04-04T20:00:00Z,30.2791,-87.5561,0.0,4.48,60.16,-9999.0,'1111122,1111122,1111122' 
DISL,ioos:station:DISL:PPTA:1,2014-04-04T20:30:00Z,30.2791,-87.5561,0.0,3.78,73.31,-9999.0,'1111122,1111122,1111122' 
DISL,ioos:station:DISL:PPTA:1,2014-04-04T21:00:00Z,30.2791,-87.5561,0.0,5.22,109.1,-9999.0,'1111122,1111122,1111122' 
DISL,ioos:station:DISL:PPTA:1,2014-04-04T21:30:00Z,30.2791,-87.5561,0.0,6.5,103.0,-9999.0,'1111122,1111122,1111122' 
DISL,ioos:station:DISL:PPTA:1,2014-04-04T22:00:00Z,30.2791,-87.5561,0.0,5.72,103.2,-9999.0,'1111122,1111122,1111122' 
DISL,ioos:station:DISL:PPTA:1,2014-04-04T22:30:00Z,30.2791,-87.5561,0.0,4.76,94.0,-9999.0,'1111122,1111122,1111122' 
DISL,ioos:station:DISL:PPTA:1,2014-04-04T23:00:00Z,30.2791,-87.5561,0.0,3.48,96.0,-9999.0,'1111122,1111122,1111122' 
DISL,ioos:station:DISL:PPTA:1,2014-04-04T23:30:00Z,30.2791,-87.5561,0.0,3.9,122.7,-9999.0,'1111122,1111122,1111122' 
DISL,ioos:station:DISL:PPTA:1,2014-04-05T00:00:00Z,30.2791,-87.5561,0.0,3.74,128.2,-9999.0,'1111122,1111122,1111122' 
DISL,ioos:station:DISL:PPTA:1,2014-04-05T00:30:00Z,30.2791,-87.5561,0.0,2.01,120.8,-9999.0,'1111122,1111122,1111122' 
DISL,ioos:station:DISL:PPTA:1,2014-04-05T01:00:00Z,30.2791,-87.5561,0.0,0.92,114.7,-9999.0,'1111122,1111122,1111122' 
DISL,ioos:station:DISL:PPTA:1,2014-04-05T01:30:00Z,30.2791,-87.5561,0.0,2.16,97.2,-9999.0,'1111122,1111122,1111122' 
DISL,ioos:station:DISL:PPTA:1,2014-04-05T02:00:00Z,30.2791,-87.5561,0.0,1.28,92.7,-9999.0,'1111122,1111122,1111122' 
DISL,ioos:station:DISL:PPTA:1,2014-04-05T02:30:00Z,30.2791,-87.5561,0.0,0.03,85.2,-9999.0,'1111122,1111122,1111122' 
DISL,ioos:station:DISL:PPTA:1,2014-04-05T03:00:00Z,30.2791,-87.5561,0.0,0.14,17.01,-9999.0,'1111122,1111122,1111122' 
DISL,ioos:station:DISL:PPTA:1,2014-04-05T03:30:00Z,30.2791,-87.5561,0.0,1.48,27.53,-9999.0,'1111122,1111122,1111122' 
DISL,ioos:station:DISL:PPTA:1,2014-04-05T04:00:00Z,30.2791,-87.5561,0.0,1.92,26.15,-9999.0,'1111122,1111122,1111122' 
DISL,ioos:station:DISL:PPTA:1,2014-04-05T04:30:00Z,30.2791,-87.5561,0.0,2.08,22.56,-9999.0,'1111122,1111122,1111122' 